Weather History for KNHK - November, 2011

Change the Weather History Date:

Saturday, November 12, 2011

  Actual Average Record
Temperature  
Mean Temperature 46 °F -  
Max Temperature 63 °F 53 °F 73 °F (1982)
Min Temperature 30 °F 42 °F 28 °F (1987)
Degree Days  
Heating Degree Days 18    
Moisture  
Dew Point 30 °F    
Average Humidity 53    
Maximum Humidity 89    
Minimum Humidity 29    
Precipitation  
Precipitation 0.00 in - - ()
Sea Level Pressure  
Sea Level Pressure 30.16 in    
Wind  
Wind Speed 7 mph (SSW)    
Max Wind Speed 17 mph    
Max Gust Speed 23 mph    
Visibility 10 miles    
Events      
Averages and records for this station are not official NWS values.
T = Trace of Precipitation, MM = Missing Value Source: NWS Daily Summary

Daily Weather History Graph

Daily Weather History Graph

Search for Another Location

Airport or City:

Trip Planner

Search our weather history database for the weather conditions in past years. The results will help you decide how hot, cold, wet, or windy it might be!

Date:

Astronomy

Nov. 12, 2011 Rise Set
Actual Time 6:43 AM EST 4:55 PM EST
Civil Twilight 6:15 AM EST 5:23 PM EST
Nautical Twilight 5:43 AM EST 5:55 PM EST
Astronomical Twilight 5:12 AM EST 6:26 PM EST
Moon 6:11 PM EST (11/12) 8:22 AM EST (11/12)
Length of Visible Light 11h 08m
Length of Day
10h 12m
Full, 97% of the Moon is Illuminated
Nov 12
Full
Nov 18
Last Quarter
Nov 25
New
Dec 2
First Quarter
Dec 10
Full

Hourly Weather History & Observations

Time (EST) Temp. Windchill Dew Point Humidity Pressure Visibility Wind Dir Wind Speed Gust Speed Precip Events Conditions
12:52 AM 30.0 °F 25.2 °F 26.1 °F 85% 30.15 in 10.0 mi SSW 4.6 mph - N/A   Clear
1:52 AM 30.9 °F 25.2 °F 26.1 °F 82% 30.16 in 10.0 mi South 5.8 mph - N/A   Clear
2:52 AM 35.1 °F 30.1 °F 28.0 °F 76% 30.17 in 10.0 mi SSW 5.8 mph - N/A   Clear
3:52 AM 35.1 °F 32.2 °F 28.9 °F 78% 30.17 in 10.0 mi South 3.5 mph - N/A   Clear
4:52 AM 30.9 °F - 28.0 °F 89% 30.18 in 10.0 mi Calm Calm - N/A   Clear
5:52 AM 33.1 °F 28.7 °F 28.0 °F 82% 30.19 in 10.0 mi SSE 4.6 mph - N/A   Clear
6:52 AM 37.0 °F 31.6 °F 30.0 °F 76% 30.19 in 10.0 mi South 6.9 mph - N/A   Partly Cloudy
7:52 AM 39.9 °F 37.8 °F 30.9 °F 70% 30.20 in 10.0 mi South 3.5 mph - N/A   Partly Cloudy
8:52 AM 46.9 °F - 30.0 °F 52% 30.19 in 10.0 mi South 8.1 mph - N/A   Partly Cloudy
9:52 AM 48.9 °F - 28.9 °F 46% 30.19 in 10.0 mi SSW 9.2 mph - N/A   Partly Cloudy
10:52 AM 54.0 °F - 28.9 °F 38% 30.18 in 10.0 mi SW 17.3 mph 23.0 mph N/A   Partly Cloudy
11:52 AM 57.9 °F - 30.0 °F 35% 30.16 in 10.0 mi SSW 12.7 mph - N/A   Clear
12:52 PM 61.0 °F - 28.9 °F 30% 30.14 in 10.0 mi SW 15.0 mph 21.9 mph N/A   Clear
1:52 PM 63.0 °F - 30.0 °F 29% 30.12 in 10.0 mi SSW 12.7 mph - N/A   Clear
2:52 PM 63.0 °F - 30.0 °F 29% 30.12 in 10.0 mi SSW 16.1 mph 21.9 mph N/A   Clear
3:52 PM 62.1 °F - 32.0 °F 32% 30.12 in 10.0 mi South 9.2 mph - N/A   Clear
4:52 PM 59.0 °F - 33.1 °F 38% 30.13 in 10.0 mi South 3.5 mph - N/A   Partly Cloudy
5:52 PM 55.9 °F - 34.0 °F 44% 30.15 in 10.0 mi South 3.5 mph - N/A   Partly Cloudy
6:52 PM 57.0 °F - 34.0 °F 42% 30.15 in 10.0 mi South 8.1 mph - N/A   Clear
7:52 PM 55.0 °F - 34.0 °F 45% 30.18 in 10.0 mi South 8.1 mph - N/A   Clear
8:52 PM 55.0 °F - 32.0 °F 42% 30.18 in 10.0 mi South 6.9 mph - N/A   Clear
9:52 PM 55.0 °F - 30.9 °F 40% 30.17 in 10.0 mi SSW 13.8 mph 20.7 mph N/A   Clear
10:52 PM 55.0 °F - 30.9 °F 40% 30.17 in 10.0 mi SSW 15.0 mph - N/A   Clear
11:52 PM 54.0 °F - 32.0 °F 43% 30.16 in 10.0 mi SSW 16.1 mph - N/A   Clear